Regional Weather Roundup
Issued by NWS

Home | Current Version | Previous Version | Graphics & Text | Print | Product List | Glossary On
Versions: 1 2 3 4 5 6 7 8 9 10 11 12 13 14 15 16 17 18 19 20 21 22 23 24 25 26 27 28 29 30 31 32 33 34 35 36 37 38 39 40 41 42 43 44 45 46 47 48 49 50
000
ASUS43 KTOP 290208
RWRKS

WEATHER ROUNDUP FOR KANSAS
NATIONAL WEATHER SERVICE GOODLAND KS
900 PM CDT FRI JUL 28 2017

NOTE:  "FAIR" INDICATES FEW OR NO CLOUDS BELOW 12,000 FEET WITH NO
SIGNIFICANT WEATHER AND/OR OBSTRUCTIONS TO VISIBILITY.

KSZ001>006-013>018-027>032-041>047-290300-
NORTHWEST KANSAS

CITY           SKY/WX    TMP DP  RH WIND       PRES   REMARKS
GOODLAND       TSTM      74  67  78 SE14G20   30.05R
HAYS           CLEAR     81  56  42 E9        30.00R
HILL CITY      CLEAR     79  60  52 E8        30.00S
RUSSELL        CLEAR     79  61  53 E9        29.98R
$$

KSZ061>065-074>080-084>089-290300-
SOUTHWEST KANSAS

CITY           SKY/WX    TMP DP  RH WIND       PRES   REMARKS
DODGE CITY     CLEAR     80  59  48 E7        30.01R
ELKHART          N/A     79  57  46 E7          N/A
GARDEN CITY    CLEAR     82  65  56 SE8       30.01R
GREAT BEND     CLEAR     83  63  50 E6        29.99R
LIBERAL        PTCLDY    85  67  54 E12       30.00R
PRATT          CLEAR     81  60  48 E5        29.98R
$$

KSZ066>073-081>083-090>101-290300-
SOUTHEAST KANSAS

CITY           SKY/WX    TMP DP  RH WIND       PRES   REMARKS
CHANUTE        CLEAR     78  65  63 NE7       29.97R
COFFEYVILLE    CLEAR     80  67  64 NE13      29.94R
HUTCHINSON     MOCLDY    83  66  56 E9        29.96R
MEDICINE LODGE   N/A     83  59  44 NE6       29.94R
NEWTON         MOCLDY    80  68  66 E9        29.98R
PARSONS        CLEAR     78  65  63 VRB3      29.96R
WICHITA INTL   PTCLDY    84  67  56 E10       29.95R
WICHITA JABRA  PTCLDY    81  67  62 E7        29.96R
WICHITA MCCONL MOCLDY    85  65  51 E8        29.96R
WINFIELD       CLEAR     85  66  53 E7        29.95R
$$

KSZ007>012-019>026-033>040-048>060-102>105-290300-
NORTHEAST KANSAS

CITY           SKY/WX    TMP DP  RH WIND       PRES   REMARKS
CONCORDIA      CLEAR     77  67  71 E6        30.00R
EMPORIA        CLEAR     77  65  66 E8        29.98R
LAWRENCE       CLEAR     73  69  87 NE3       29.98S
MANHATTAN      CLEAR     79  65  62 E7        29.98R
MARYSVILLE     CLEAR     73  63  68 E5        30.01R
OLATHE IND     CLEAR     76  63  64 E5        29.99S
OLATHE EXE     CLEAR     75  62  64 E5        29.99S
SALINA         CLEAR     84  68  58 E12       29.98R
TOPEKA BILLARD CLEAR     76  68  76 CALM      29.98S
TOPEKA FORBES  CLEAR     77  65  66 NE3       29.98F
$$




USA.gov is the U.S. government's official web portal to all federal, state and local government web resources and services.